エンケ彗星

2P/Encke (2020)

English version
Home page
Updated on August 15, 2020

---------------------------------------------------------------------

・ プロフィール

・ 写真集

・ 軌道要素

Epoch 2020 May 31.0 TT = JDT 2459000.5
T 2020 June 25.84643 TT                                 Rudenko
q   0.3367198            (2000.0)            P               Q
n   0.29892057     Peri.  186.56218     -0.94513484     -0.31471346
a   2.2152981      Node   334.55216     +0.30822874     -0.77022900
e   0.8480025      Incl.   11.76467     +0.10823670     -0.55470958
P   3.30
From 2606 observations 2013 July 13-2020 July 14, mean residual 0".8.
     Nongravitational parameters A1 = -0.02, A2 = +0.0003.

・ 星図

・ 光度変化

        H = 14.2  G = 0.15                [   ,-97]  (              〜2020年 3月20日)
        m1 =  9.8 + 5 logΔ + 25   log r  [-97,-45]  (2020年 3月20日〜2020年 5月11日)
        m1 = 10.3 + 5 logΔ +  7.0 log r  [-45, 20]  (2020年 5月11日〜2020年 7月15日)
        m1 = 12.3 + 5 logΔ + 15.7 log r  [ 20,115]  (2020年 7月15日〜2020年10月18日)
        H = 14.2  G = 0.15                [115,   ]  (2020年10月18日〜              )

---------------------------------------------------------------------

軌道要素はM.P.E.C. 2020-O07に掲載されたものです。
星図はステラナビゲータ Ver.10 (アストロアーツ) で作成したものです。
光度グラフはComet for Windowsで作成したものです。

---------------------------------------------------------------------

Copyright(C) Seiichi Yoshida (comet@aerith.net). All rights reserved.